Regional Weather Roundup
Issued by NWS

Home | Current Version | Previous Version | Graphics & Text | Print | Product List | Glossary On
Versions: 1 2 3 4 5 6 7 8 9 10 11 12 13 14 15 16 17 18 19 20 21 22 23 24 25 26 27 28 29 30 31 32 33 34 35 36 37 38 39 40 41 42 43 44 45 46 47 48 49 50
006
ASUS43 KLOT 290504
RWRIL

ILLINOIS REGIONAL WEATHER ROUNDUP
NATIONAL WEATHER SERVICE CHICAGO/ROMEOVILLE IL
1200 AM CDT FRI JUL 29 2016

NOTE: "FAIR" INDICATES FEW OR NO CLOUDS BELOW 12,000 FEET WITH NO
SIGNIFICANT WEATHER AND/OR OBSTRUCTIONS TO VISIBILITY.

* THESE STATIONS ARE NOT UNDER NWS QUALITY CONTROL. THEY ALSO MAY NOT
  REPORT WEATHER SUCH AS PRECIPITATION OR FOG.

ILZ001-002-007-009-015-016-024-290600-
NORTHWEST ILLINOIS

CITY           SKY/WX    TMP DP  RH WIND       PRES   REMARKS
MOLINE         PTCLDY    72  66  81 NW5       29.92R
STERLING*      MOCLDY    70  69  97 NE5       29.93R FOG
SAVANNA*       CLOUDY    71  69  92 NE7       29.93S
$$

ILZ003-004-008-010-011-017-018-290600-
NORTH CENTRAL ILLINOIS

CITY           SKY/WX    TMP DP  RH WIND       PRES   REMARKS
ROCKFORD       CLOUDY    70  65  84 NE7       29.95S
FREEPORT*      CLOUDY    67  65  94 NE3       29.97R
ROCHELLE*      CLOUDY    68  67  96 NE6       29.94S
DE KALB*       CLOUDY    67  67  97 N3        29.95R FOG
$$

ILZ005-006-012>014-019>023-290600-
NORTHEAST ILLINOIS

CITY           SKY/WX    TMP DP  RH WIND       PRES   REMARKS
CHICAGO-OHARE  MOCLDY    71  69  93 VRB7      29.92S
CHICAGO-MIDWAY PTCLDY    73  69  87 W3        29.91S
AURORA         CLEAR     69  67  93 CALM      29.93S FOG
LANSING*       CLEAR     72  70  93 CALM      29.92S FOG
WAUKEGAN       PTCLDY    70  67  90 N5        29.93S
DUPAGE AIRPORT CLOUDY    69  67  93 N5        29.92F FOG
KANKAKEE*      CLEAR     71  69  93 CALM      29.92S FOG
WHEELING       PTCLDY    70  68  93 N6        29.93F
MORRIS*        PTCLDY    70  69  96 CALM      29.91F FOG
NORTHERLY ISL    N/A     73  70  90 N3          N/A
$$

LMZ740>746-290600-
SOUTHERN LAKE MICHIGAN

STATION/POSITION SKY/WX   TEMP    WIND        PRES    VSBY  WAVE
                          AIR SEA DIR/SP/G                  HT/PER
                          (F)     (DEG/KT/KT) (MB)    (MI)  (FT/S)
SOUTHERN BUOY              74 75   70/  8/ 10 1012.9R         2/ 6
WILMETTE HARBOR            71 73  360/ 10/ 12   N/A           3/ 5
HARRISON CRIB              76     360/  3/  3   N/A
BURNHAM HARBOR             72      CALM  /  4   N/A
CALUMET HARBOR             74     340/  2/  2 1012.5
BURNS HARBOR               75      CALM  /  7 1013.2F
MICHIGAN CITY              71      60/  2/  3   N/A
MICHIGAN CITY 6N           74 77  110/  6/  8   N/A           2/ 3
ST. JOSEPH                 74 76   80/  6/  8 1012.6F         1
$$

ILZ025>027-034>036-040-047-049-050-058-095>099-290600-
WEST-CENTRAL ILLINOIS

CITY           SKY/WX    TMP DP  RH WIND       PRES   REMARKS
QUINCY         CLEAR     70  69  97 W3        29.95R
GALESBURG*     CLEAR     67  65  92 CALM      29.93S
MACOMB*        CLEAR     67  66  97 W6        29.96R
JACKSONVILLE*  PTCLDY    70  68  92 W5        29.94R
PITTSFIELD*    CLEAR     71  68  92 W3        29.96R
$$

ILZ028>032-037-038-041>044-048-051>054-059>061-290600-
CENTRAL ILLINOIS

CITY           SKY/WX    TMP DP  RH WIND       PRES   REMARKS
PONTIAC        CLEAR     70  70 100 CALM      29.93S
BLOOMINGTON    CLEAR     70  69  97 NE6       29.94S
DECATUR        CLEAR     71  68  90 CALM      29.92S
PEORIA         PTCLDY    73  69  87 CALM      29.92S
LACON*         CLEAR     70  68  93 E6        29.90S
LINCOLN*       CLEAR     71  70  98 CALM      29.92S
SPRINGFIELD    CLEAR     73  70  90 NW5       29.92F
TAYLORVILLE    CLEAR     73  72  99 MISG      29.92S
$$

ILZ033-039-045-046-055>057-062-063-290600-
EAST-CENTRAL ILLINOIS

CITY           SKY/WX    TMP DP  RH WIND       PRES   REMARKS
CHAMPAIGN      CLOUDY    72  69  90 CALM      29.93R
RANTOUL*       PTCLDY    73  73 100 CALM      29.92
MATTOON        CLEAR     68  66  93 NW3       29.91R
PARIS*         CLEAR     71  71 100 CALM      29.92S FOG
$$

ILZ079-100>102-290600-
SOUTHWEST ILLINOIS

CITY           SKY/WX    TMP DP  RH WIND       PRES   REMARKS
ALTON          CLEAR     74  72  93 NW3       29.93S
CAHOKIA*       PTCLDY    76  73  91 CALM      29.92S
SPARTA*        MOCLDY    76  73  88 CALM      29.93S
$$

ILZ064>066-069>071-074>076-080>082-084>086-088>090-092>094-290600-
SOUTH-CENTRAL ILLINOIS

CITY           SKY/WX    TMP DP  RH WIND       PRES   REMARKS
CARBONDALE     CLOUDY    73  70  90 CALM      29.92F
CAIRO*         CLOUDY    73  73  99 CALM      29.93R
EFFINGHAM*     PTCLDY    70  70 100 CALM      29.93S
MARION         CLOUDY    73  73 100 CALM      29.93F
MT. VERNON     PTCLDY    72  66  83 MISG      29.92R
CENTRALIA*     CLEAR     71  71 100 CALM      29.92R FOG
SALEM*         CLEAR     71  69  95 CALM      29.92S FOG
METROPOLIS*    CLOUDY    76  73  88 CALM      29.94R
$$

ILZ067-068-072-073-078-083-087-091-290600-
SOUTHEAST ILLINOIS

CITY           SKY/WX    TMP DP  RH WIND       PRES   REMARKS
LAWRENCEVILLE  PTCLDY    71  69  93 NW3       29.92S
FLORA*         PTCLDY    73  72  98 S3        29.92S FOG
FAIRFIELD*     PTCLDY    71  71 100 CALM      29.91S FOG
HARRISBURG*    MOCLDY    74  73  98 CALM      29.93S
ROBINSON*      MOCLDY    70  70  98 CALM      29.92S
CARMI*         PTCLDY    72  71  96 S6        29.90F
$$

ABBREVIATIONS USED IN REMARKS
   TC - TEMPERATURE IN CELSIUS
  WCI - WIND CHILL INDEX
   HX - HEAT INDEX
  VSB - VISIBILITY
$$





USA.gov is the U.S. government's official web portal to all federal, state and local government web resources and services.